Rijeka, Croatia

12:23 AM CEST am 27. Juni 2017 (GMT +0200)
Rijeka

Wetter Verlauf für LDRI - März, 2017

Change the Weather History Date:

Dienstag, März 21, 2017

  Actual Average Record
Temperature  
mittlereTemperatur 55 °F -  
Max. Temperatur 64 °F - - ()
Min.Temperatur 46 °F - - ()
Degree Days  
Heizgradtage 10    
Growing Degree Days 5 (Base 50)    
Moisture  
Taupunkt 47 °F    
Average Humidity 76    
Maximum Humidity 100    
Minimum Humidity 52    
Niederschlag  
Niederschlag 0.00 inch - - ()
Luftdruck in Meereshöhe  
Luftdruck in Meereshöhe 29.89 inch    
Wind  
Windgeschwindigkeit 2 mph ()    
Max. Windgeschwindigkeit 7 mph    
Max Gust Speed -    
Sichtweite 6.2 Meilen    
Ereignisse      
T = Trace of Precipitation, MM = Missing Value Source: Averaged Metar Reports

Daily Weather History Graph

Daily Weather History Graph

Search for Another Location

Airport or City:

Trip Planner

Search our weather history database for the weather conditions in past years. The results will help you decide how hot, cold, wet, or windy it might be!

Date:

Astronomie

Mar. 21, 2017 Aufgang Untergang
Genaue Zeit 06:02 CET 18:15 CET
Bürgerliche Dämmerung 05:33 CET 18:44 CET
Nautische Dämmerung 04:58 CET 19:19 CET
Astronomische Dämmerung 04:23 CET 19:55 CET
Mond 01:47 CET (3/21) 11:23 CET (3/21)
Länge des sichtbaren Lichts 13h 11m
Tageslänge
12h 12m
Letztes Viertel, 42% of the Moon is Illuminated
Mrz 21
Letztes Viertel
Mrz 28
Neu
Apr 3
Erstes Viertel
Apr 11
Vollmond
Apr 19
Letztes Viertel

Hourly Weather History & Observations

Zeit (CET) Temp. Windchill Taupunkt Feuchtigkeit Druck Sichtweite Wind Dir Windgeschwindigkeit Böengeschwindigkeit Precip Ereignisse Wetterzustand
12:00 AM 50.0 °F - 48.2 °F 94% 29.92 inch - Nord 1.2 mph - N/A   Heiter
12:30 AM 48.2 °F - 46.4 °F 93% 29.92 inch - Ruhig Ruhig - N/A   Heiter
1:00 AM 48.2 °F - 46.4 °F 93% 29.92 inch - Ruhig Ruhig - N/A   Heiter
1:30 AM 48.2 °F - 46.4 °F 93% 29.92 inch - Südost 1.2 mph - N/A   Heiter
2:00 AM 50.0 °F - 46.4 °F 87% 29.92 inch - Ruhig Ruhig - N/A   Heiter
2:30 AM 50.0 °F - 48.2 °F 94% 29.92 inch - Nord-Nordost 3.5 mph - N/A   Heiter
3:00 AM 48.2 °F - 44.6 °F 87% 29.89 inch - Nord 3.5 mph - N/A   Heiter
3:30 AM 48.2 °F - 46.4 °F 93% 29.89 inch - Ruhig Ruhig - N/A   Heiter
4:00 AM 48.2 °F - 46.4 °F 93% 29.89 inch - Ruhig Ruhig - N/A   Heiter
4:30 AM 48.2 °F - 46.4 °F 93% 29.89 inch - Ruhig Ruhig - N/A   Heiter
5:00 AM 48.2 °F - 48.2 °F 100% 29.89 inch - Ruhig Ruhig - N/A   Heiter
5:30 AM 46.4 °F - 44.6 °F 93% 29.89 inch - Ruhig Ruhig - N/A   Heiter
6:00 AM 46.4 °F 43.5 °F 44.6 °F 93% 29.89 inch 6.2 mi Südost 5.8 mph - N/A   Teils Wolkig
6:30 AM 48.2 °F - 46.4 °F 93% 29.89 inch 6.2 mi Südost 3.5 mph - N/A   Teils Wolkig
7:00 AM 48.2 °F - 46.4 °F 93% 29.89 inch 6.2 mi Südost 1.2 mph - N/A   Teils Wolkig
7:30 AM 53.6 °F - 50.0 °F 88% 29.92 inch 6.2 mi Ruhig Ruhig - N/A   Teils Wolkig
8:30 AM 59.0 °F - 50.0 °F 72% 29.92 inch 6.2 mi Wechselnd 2.3 mph - N/A   Teils Wolkig
9:00 AM 60.8 °F - 48.2 °F 63% 29.92 inch 6.2 mi West 3.5 mph - N/A   Teils Wolkig
9:30 AM 55.4 °F - 48.2 °F 77% 29.92 inch 6.2 mi West 3.5 mph - N/A   Teils Wolkig
10:00 AM 57.2 °F - 48.2 °F 72% 29.92 inch 6.2 mi Nordwest 4.6 mph - N/A   Teils Wolkig
10:30 AM 59.0 °F - 46.4 °F 63% 29.92 inch 6.2 mi Nord-Nordwest 5.8 mph - N/A   Teils Wolkig
11:00 AM 57.2 °F - 46.4 °F 67% 29.92 inch 6.2 mi Nord-Nordwest 5.8 mph - N/A   Teils Wolkig
11:30 AM 60.8 °F - 46.4 °F 59% 29.92 inch 6.2 mi Nordwest 5.8 mph - N/A   Teils Wolkig
12:00 PM 60.8 °F - 46.4 °F 59% 29.92 inch 6.2 mi Nord-Nordwest 6.9 mph - N/A   Teils Wolkig
12:30 PM 60.8 °F - 48.2 °F 63% 29.92 inch 6.2 mi West 5.8 mph - N/A   Teils Wolkig
1:00 PM 62.6 °F - 46.4 °F 55% 29.92 inch 6.2 mi West 5.8 mph - N/A   Teils Wolkig
1:30 PM 64.4 °F - 46.4 °F 52% 29.89 inch 6.2 mi West 5.8 mph - N/A   Teils Wolkig
2:00 PM 64.4 °F - 48.2 °F 56% 29.89 inch 6.2 mi West 5.8 mph - N/A   Teils Wolkig
2:30 PM 62.6 °F - 48.2 °F 59% 29.89 inch 6.2 mi West 3.5 mph - N/A   Teils Wolkig
3:00 PM 62.6 °F - 48.2 °F 59% 29.89 inch 6.2 mi Wechselnd 3.5 mph - N/A   Teils Wolkig
3:30 PM 62.6 °F - 48.2 °F 59% 29.86 inch 6.2 mi Wechselnd 3.5 mph - N/A   Teils Wolkig
4:00 PM 60.8 °F - 48.2 °F 63% 29.86 inch 6.2 mi Nordwest 4.6 mph - N/A   Teils Wolkig
4:30 PM 60.8 °F - 48.2 °F 63% 29.86 inch 6.2 mi Nord-Nordwest 4.6 mph - N/A   Teils Wolkig
5:00 PM 60.8 °F - 48.2 °F 63% 29.86 inch - Nord-Nordwest 3.5 mph - N/A   Heiter
5:30 PM 60.8 °F - 48.2 °F 63% 29.83 inch - West-Nordwest 3.5 mph - N/A   Heiter
6:00 PM 57.2 °F - 46.4 °F 67% 29.86 inch - Wechselnd 2.3 mph - N/A   Heiter
6:30 PM 55.4 °F - 48.2 °F 77% 29.86 inch - Wechselnd 2.3 mph - N/A   Heiter
7:00 PM 55.4 °F - 48.2 °F 77% 29.86 inch - Wechselnd 2.3 mph - N/A   Heiter
7:30 PM 55.4 °F - 46.4 °F 72% 29.86 inch - Wechselnd 2.3 mph - N/A   Heiter
8:00 PM 53.6 °F - 46.4 °F 77% 29.86 inch - Wechselnd 2.3 mph - N/A   Heiter
8:30 PM 53.6 °F - 46.4 °F 77% 29.86 inch - Wechselnd 1.2 mph - N/A   Heiter
9:00 PM 55.4 °F - 48.2 °F 77% 29.86 inch - Wechselnd 2.3 mph - N/A   Heiter
9:30 PM 55.4 °F - 50.0 °F 82% 29.86 inch - Wechselnd 2.3 mph - N/A   Heiter
10:00 PM 55.4 °F - 50.0 °F 82% 29.86 inch - Ruhig Ruhig - N/A   Heiter
10:30 PM 57.2 °F - 48.2 °F 72% 29.86 inch - Wechselnd 2.3 mph - N/A   Heiter